• MPC Preparation (Info)

  • MPEC 2019-L29 : 2019 KM5

    The following Minor Planet Electronic Circular may be linked-to from your own Web pages, but must not otherwise be redistributed electronically.

    A form allowing access to any MPEC is at the bottom of this page.


    Read MPEC 2019-L28 Read MPEC 2019-L30


    M.P.E.C. 2019-L29                                Issued 2019 June 3, 15:40 UT
    
         The Minor Planet Electronic Circulars contain information on unusual
             minor planets and routine data on comets.  They are published
        on behalf of Division F of the International Astronomical Union by the
              Minor Planet Center, Smithsonian Astrophysical Observatory,
                              Cambridge, MA 02138, U.S.A.
    
                 Prepared using the Tamkin Foundation Computer Network
    
                                  MPC@CFA.HARVARD.EDU
                URL https://www.minorplanetcenter.net/    ISSN 1523-6714
    
                                       2019 KM5
    
    Observations:
         K19K05M* C2019 05 30.41133 16 20 32.040-14 11 55.26         22.5 wUEL029F51
         K19K05M  C2019 05 30.42342 16 20 33.289-14 11 59.83         22.4 wUEL029F51
         K19K05M  C2019 05 30.43551 16 20 34.482-14 12 04.19         22.0 wUEL029F51
         K19K05M  C2019 06 01.41581816 24 45.584-14 24 58.49         23.9 GVEL029F51
         K19K05M  C2019 06 01.42789616 24 46.851-14 25 03.39         22.1 GVEL029F51
         K19K05M  C2019 06 01.43997916 24 48.152-14 25 07.92         22.5 GVEL029F51
         K19K05M  C2019 06 01.45205316 24 49.431-14 25 12.70         22.2 GVEL029F51
         K19K05M ^C2019 06 01.53949916 24 58.972-14 25 45.04         21.96GVEL029568
         K19K05M ^C2019 06 01.54044916 24 59.076-14 25 45.41         21.88GVEL029568
         K19K05M ^C2019 06 01.54140016 24 59.182-14 25 45.75         22.27GVEL029568
    
    Observer details:
    568 Mauna Kea.  Observers R. Wainscoat, L. Wells, T. Burdullis.  Measurers
        R. Weryk, R. Wainscoat.  3.6-m Canada-France-Hawaii Telescope + CCD.
    F51 Pan-STARRS 1, Haleakala.  Observers J. Bulger, T. Lowe, A. Schultz,
        M. Willman, K. Chambers, E. Magnier.  Measurers K. Chambers, S. Chastel,
        T. de Boer, L. Denneau, J. Fairlamb, H. Flewelling, M. Huber, C.-C. Lin,
        E. Magnier, Y. Ramanjooloo, R. Wainscoat, R. Weryk.  1.8-m
        Ritchey-Chretien + CCD.
    
    Orbital elements:
    2019 KM5                                                 Earth MOID = 0.1408 AU
    Epoch 2019 Apr. 27.0 TT = JDT 2458600.5                 MPC
    M 338.86559              (2000.0)            P               Q
    n   0.39608149     Peri.  144.96450     -0.06237375     +0.99788716
    a   1.8363115      Node   121.45304     -0.92049500     -0.05047457
    e   0.3701889      Incl.    1.22156     -0.38574404     -0.04090892
    P   2.49           H   25.5           G   0.15           U   8
    Residuals in seconds of arc
    190530 F51  0.2+  0.0     190601 F51  0.1+  0.2-    190601 568  0.3+  0.1+
    190530 F51  0.5+  0.0     190601 F51  0.2+  0.2+    190601 568  0.2+  0.1+
    190530 F51  0.0   0.1+    190601 F51  0.0   0.2+
    190601 F51  0.4+  0.3-    190601 568  0.3+  0.1+
    
    Ephemeris:
    2019 KM5                 a,e,i = 1.84, 0.37, 1                   q = 1.1565
    Date    TT    R. A. (2000) Decl.     Delta      r     Elong.  Phase     V
    2019 05 04    15 39 22.2 -13 07 47   0.2364  1.2388   165.9    11.4    23.5
    ...
    2019 05 19    15 59 54.3 -13 22 36   0.1854  1.1955   172.3     6.5    22.7
    ...
    2019 05 27    16 13 46.5 -13 52 25   0.1665  1.1785   172.7     6.3    22.4
    ...
    2019 06 02    16 26 01.4 -14 28 30   0.1560  1.1687   171.9     7.0    22.3
    2019 06 03    16 28 14.3 -14 35 44   0.1545  1.1674   171.8     7.2    22.3
    2019 06 04    16 30 30.3 -14 43 19   0.1531  1.1661   171.6     7.3    22.3
    ...
    2019 06 10    16 45 12.8 -15 35 55   0.1466  1.1601   170.5     8.3    22.2
    ...
    2019 06 18    17 07 36.3 -17 01 13   0.1428  1.1566   169.4     9.3    22.2
    ...
    2019 07 03    17 54 05.0 -19 50 29   0.1504  1.1641   167.5    10.9    22.4
    
    A. U. Tomatic                (C) Copyright 2019 MPC           M.P.E.C. 2019-L29
    

    Read MPEC 2019-L28 Read MPEC 2019-L30


    MPEC number:

    Enter an MPEC number in one of the following forms:

    • 1997-B01 (the full form)
    • J97B01 (the packed version of the full form)
    • B01 (the abbreviated form)